Hourly Data Report for October 19, 2013

All times are specified in Local Standard Time (LST). Add 1 hour to adjust for Daylight Saving Time where and when it is observed.

GJOA HAVEN A
NUNAVUT

68°38'08.000" N
95°51'01.000" W
46.90 m
2302337
71597
YHK

Download Data

Hourly Data (October 2013)
Hourly Data Report for October 19, 2013
Temp Definition
°C
Dew Point Temp Definition
°C
Rel Hum Definition
%
Wind Dir Definition
10's deg

Wind Spd Definition
km/h
Visibility Definition
km
Stn Press Definition
kPa
Hmdx Definition


Wind Chill Definition


Weather Definition


TIME
00:00 Legend Double Dagger -2.2 -2.6 97 1 21 16.1 100.05   -8 LegendNANA
01:00 Legend Double Dagger -2.0 -2.4 97 1 18 16.1 100.10   -7 LegendNANA
02:00 Legend Double Dagger -1.9 -2.3 97 2 18 16.1 100.15   -7 LegendNANA
03:00 Legend Double Dagger -2.1 -2.5 97 1 17 16.1 100.20   -7 LegendNANA
04:00 Legend Double Dagger -2.2 -2.5 98 1 18 16.1 100.25   -8 LegendNANA
05:00 Legend Double Dagger -2.6 -3.0 97 36 21 3.2 100.29   -9 LegendNANA
06:00 Legend Double Dagger -2.8 -2.9 99 1 15 6.4 100.33   -8 LegendNANA
07:00 Legend Double Dagger -2.9 -3.2 98 36 21 4.8 100.38   -9 LegendNANA
08:00 Legend Double Dagger -3.2 -3.5 98 36 22 9.7 100.43   -10 LegendNANA
09:00 Legend Double Dagger -2.9 -3.2 98 36 17 4.8 100.48   -8 LegendNANA
10:00 Legend Double Dagger -2.5 -2.6 99 1 17 16.1 100.52   -8 LegendNANA
11:00 Legend Double Dagger -1.9 -2.2 98 4 21 16.1 100.55   -8 LegendNANA
12:00 Legend Double Dagger -1.9 -2.2 98 4 22 16.1 100.60   -8 LegendNANA
13:00 Legend Double Dagger -1.9 -2.3 97 3 18 16.1 100.66   -7 LegendNANA
14:00 Legend Double Dagger -2.1 -2.4 98 2 21 16.1 100.73   -8 LegendNANA
15:00 Legend Double Dagger -2.1 -2.5 97 3 18 16.1 100.80   -8 LegendNANA
16:00 Legend Double Dagger -2.2 -2.6 97 2 17 16.1 100.85   -8 LegendNANA
17:00 Legend Double Dagger -2.2 -2.8 96 5 21 16.1 100.88   -8 LegendNANA
18:00 Legend Double Dagger -2.2 -2.9 95 4 21 16.1 100.92   -8 LegendNANA
19:00 Legend Double Dagger -2.3 -2.9 96 5 17 16.1 100.94   -8 LegendNANA
20:00 Legend Double Dagger -2.2 -2.6 97 6 18 16.1 100.97   -8 LegendNANA
21:00 Legend Double Dagger -2.2 -2.8 96 6 13 16.1 101.01   -7 LegendNANA
22:00 Legend Double Dagger -2.3 -2.7 97 6 11 16.1 101.04   -6 LegendNANA
23:00 Legend Double Dagger -2.6 -3.0 97 4 13 16.1 101.08   -7 LegendNANA

Notes on Data Quality.

Legend

  • E = Estimated
  • M = Missing
  • NA = Not Available
  • ‡ = Partner data that is not subject to review by the National Climate Archives
Date modified: